Grafton, ND

2:37 PM CST on February 10, 2016 (GMT -0600)
Grafton Municipal

Weather History for KGAF - January, 2014

Change the Weather History Date:

Saturday, January 18, 2014

  Actual Average Record
Temperature  
Mean Temperature 20 °F -  
Max Temperature 33 °F 16 °F 40 °F (1991)
Min Temperature 6 °F -3 °F -35 °F (1970)
Degree Days  
Heating Degree Days 46    
Moisture  
Dew Point 15 °F    
Average Humidity 85    
Maximum Humidity 93    
Minimum Humidity 73    
Precipitation  
Precipitation 0.00 in - - ()
Sea Level Pressure  
Sea Level Pressure 29.73 in    
Wind  
Wind Speed 14 mph (WNW)    
Max Wind Speed 28 mph    
Max Gust Speed 33 mph    
Visibility 9 miles    
Events Snow    
Averages and records for this station are not official NWS values.
T = Trace of Precipitation, MM = Missing Value Source: NWS Daily Summary

Daily Weather History Graph

Daily Weather History Graph

Search for Another Location

Airport or City:

Trip Planner

Search our weather history database for the weather conditions in past years. The results will help you decide how hot, cold, wet, or windy it might be!

Date:

Astronomy

Jan. 18, 2014 Rise Set
Actual Time 8:13 AM CST 5:06 PM CST
Civil Twilight 7:38 AM CST 5:41 PM CST
Nautical Twilight 6:59 AM CST 6:20 PM CST
Astronomical Twilight 6:22 AM CST 6:57 PM CST
Moon 8:06 PM CST (1/18) 8:59 AM CST (1/18)
Length of Visible Light 10h 03m
Length of Day
8h 53m
Waning Gibbous, 94% of the Moon is Illuminated
Jan 18
Waning Gibbous
Jan 23
Last Quarter
Jan 30
New
Feb 6
First Quarter
Feb 14
Full

Hourly Weather History & Observations

Time (CST) Temp. Windchill Dew Point Humidity Pressure Visibility Wind Dir Wind Speed Gust Speed Precip Events Conditions
12:15 AM 12.2 °F -1.8 °F 8.6 °F 85% 29.46 in 5.0 mi ESE 11.5 mph - N/A Snow Light Snow
12:35 AM 14.0 °F 1.2 °F 10.4 °F 86% 29.46 in 3.0 mi ESE 10.4 mph - N/A Snow Light Snow
12:55 AM 14.0 °F 0.5 °F 10.4 °F 86% 29.48 in 3.0 mi East 11.5 mph - N/A   Overcast
1:15 AM 14.0 °F 1.2 °F 12.2 °F 93% 29.49 in 3.0 mi ENE 10.4 mph - N/A Snow Light Snow
1:35 AM 15.8 °F 3.4 °F 14.0 °F 93% 29.50 in 3.0 mi ENE 10.4 mph - N/A Snow Light Snow
1:55 AM 15.8 °F 2.1 °F 14.0 °F 93% 29.52 in 3.0 mi NE 12.7 mph - N/A Snow Light Snow
2:15 AM 14.0 °F -0.8 °F 12.2 °F 93% 29.55 in 10.0 mi NE 13.8 mph - N/A   Overcast
2:35 AM 14.0 °F -1.4 °F 10.4 °F 86% 29.58 in 10.0 mi NE 15.0 mph - N/A   Overcast
2:55 AM 14.0 °F -1.4 °F 10.4 °F 86% 29.61 in 10.0 mi NE 15.0 mph - N/A   Overcast
3:15 AM 14.0 °F -2.0 °F 10.4 °F 86% 29.63 in 10.0 mi NE 16.1 mph - N/A   Overcast
3:35 AM 12.2 °F -3.1 °F 8.6 °F 85% 29.66 in 10.0 mi NNE 13.8 mph - N/A   Overcast
3:55 AM 10.4 °F -5.4 °F 6.8 °F 85% 29.68 in 10.0 mi North 13.8 mph 17.3 mph N/A   Scattered Clouds
4:15 AM 8.6 °F -7.7 °F 5.0 °F 85% 29.71 in 10.0 mi North 13.8 mph - N/A   Mostly Cloudy
4:35 AM 8.6 °F -8.3 °F 6.8 °F 92% 29.72 in 10.0 mi North 15.0 mph - N/A   Overcast
4:55 AM 10.4 °F -6.0 °F 6.8 °F 85% 29.75 in 10.0 mi North 15.0 mph - N/A   Overcast
5:15 AM 10.4 °F -6.6 °F 8.6 °F 92% 29.77 in 10.0 mi North 16.1 mph 20.7 mph N/A   Overcast
5:35 AM 10.4 °F -6.6 °F 6.8 °F 85% 29.78 in 10.0 mi North 16.1 mph - N/A   Overcast
5:55 AM 10.4 °F -7.2 °F 6.8 °F 85% 29.80 in 10.0 mi North 17.3 mph - N/A   Overcast
6:15 AM 10.4 °F -6.6 °F 6.8 °F 85% 29.82 in 10.0 mi NNW 16.1 mph 20.7 mph N/A   Overcast
6:35 AM 10.4 °F -7.7 °F 6.8 °F 85% 29.85 in 10.0 mi NNW 18.4 mph 24.2 mph N/A   Overcast
6:55 AM 10.4 °F -7.2 °F 6.8 °F 85% 29.85 in 10.0 mi North 17.3 mph 21.9 mph N/A   Overcast
7:15 AM 8.6 °F -8.3 °F 6.8 °F 92% 29.86 in 10.0 mi NNW 15.0 mph - N/A   Mostly Cloudy
7:35 AM 8.6 °F -8.3 °F 5.0 °F 85% 29.87 in 10.0 mi North 15.0 mph 21.9 mph N/A   Mostly Cloudy
7:55 AM 8.6 °F -9.5 °F 5.0 °F 85% 29.89 in 9.0 mi NNW 17.3 mph - N/A   Mostly Cloudy
8:15 AM 6.8 °F -12.4 °F 5.0 °F 92% 29.91 in 10.0 mi NNW 18.4 mph - N/A   Scattered Clouds
8:35 AM 6.8 °F -8.6 °F 5.0 °F 92% 29.91 in 10.0 mi NNW 11.5 mph - N/A   Clear
8:55 AM 8.6 °F -8.3 °F 5.0 °F 85% 29.94 in 10.0 mi NNW 15.0 mph - N/A   Mostly Cloudy
9:15 AM 8.6 °F -6.3 °F 5.0 °F 85% 29.94 in 10.0 mi North 11.5 mph - N/A   Overcast
9:35 AM 10.4 °F -1.5 °F 6.8 °F 85% 29.95 in 10.0 mi NNW 8.1 mph - N/A   Overcast
9:55 AM 10.4 °F -2.4 °F 6.8 °F 85% 29.96 in 10.0 mi NNW 9.2 mph - N/A   Overcast
10:15 AM 10.4 °F -4.1 °F 6.8 °F 85% 29.97 in 10.0 mi NNW 11.5 mph - N/A   Overcast
10:35 AM 12.2 °F 2.9 °F 6.8 °F 79% 29.97 in 10.0 mi NNW 5.8 mph - N/A   Overcast
10:55 AM 12.2 °F -1.0 °F 6.8 °F 79% 29.96 in 10.0 mi NW 10.4 mph - N/A   Overcast
11:15 AM 14.0 °F 6.5 °F 6.8 °F 73% 29.95 in 10.0 mi WNW 4.6 mph - N/A   Overcast
11:35 AM 14.0 °F 3.9 °F 8.6 °F 79% 29.96 in 10.0 mi WNW 6.9 mph - N/A   Overcast
11:55 AM 14.0 °F 2.0 °F 8.6 °F 79% 29.96 in 10.0 mi West 9.2 mph - N/A   Overcast
12:15 PM 14.0 °F 2.9 °F 10.4 °F 86% 29.95 in 10.0 mi WSW 8.1 mph - N/A   Overcast
12:35 PM 15.8 °F 6.1 °F 10.4 °F 79% 29.95 in 10.0 mi WSW 6.9 mph - N/A   Overcast
12:55 PM 15.8 °F 4.2 °F 10.4 °F 79% 29.92 in 10.0 mi SW 9.2 mph - N/A   Overcast
1:15 PM 15.8 °F 4.2 °F 10.4 °F 79% 29.90 in 10.0 mi SW 9.2 mph - N/A   Mostly Cloudy
1:35 PM 15.8 °F 3.4 °F 12.2 °F 86% 29.90 in 10.0 mi SW 10.4 mph - N/A   Mostly Cloudy
1:55 PM 17.6 °F 3.7 °F 14.0 °F 86% 29.89 in 9.0 mi WSW 13.8 mph - N/A   Overcast
2:15 PM 19.4 °F 8.6 °F 15.8 °F 86% 29.88 in 8.0 mi WSW 9.2 mph - N/A   Overcast
2:35 PM 19.4 °F 9.5 °F 15.8 °F 86% 29.87 in 8.0 mi WSW 8.1 mph - N/A   Overcast
2:55 PM 21.2 °F 10.1 °F 17.6 °F 86% 29.85 in 8.0 mi SW 10.4 mph - N/A   Overcast
3:15 PM 23.0 °F 11.7 °F 17.6 °F 80% 29.84 in 8.0 mi WSW 11.5 mph - N/A   Overcast
3:35 PM 23.0 °F 13.1 °F 17.6 °F 80% 29.84 in 9.0 mi SW 9.2 mph - N/A   Overcast
3:55 PM 23.0 °F 11.1 °F 19.4 °F 86% 29.82 in 8.0 mi SW 12.7 mph - N/A   Overcast
4:15 PM 23.0 °F 12.4 °F 19.4 °F 86% 29.81 in 9.0 mi SW 10.4 mph - N/A   Overcast
4:35 PM 23.0 °F 11.7 °F 19.4 °F 86% 29.80 in 9.0 mi SSW 11.5 mph - N/A   Overcast
4:55 PM 23.0 °F 11.1 °F 19.4 °F 86% 29.79 in 9.0 mi SW 12.7 mph - N/A   Mostly Cloudy
5:15 PM 23.0 °F 10.6 °F 19.4 °F 86% 29.77 in 10.0 mi SW 13.8 mph - N/A   Scattered Clouds
5:35 PM 24.8 °F 13.4 °F 21.2 °F 86% 29.76 in 10.0 mi SW 12.7 mph - N/A   Mostly Cloudy
5:55 PM 24.8 °F 13.4 °F 23.0 °F 93% 29.74 in 10.0 mi SW 12.7 mph - N/A   Scattered Clouds
6:15 PM 26.6 °F 14.7 °F 23.0 °F 86% 29.71 in 10.0 mi WSW 15.0 mph 19.6 mph N/A   Partly Cloudy
6:35 PM 28.4 °F 16.6 °F 24.8 °F 86% 29.68 in 10.0 mi SW 16.1 mph - N/A   Mostly Cloudy
6:55 PM 28.4 °F 15.8 °F 24.8 °F 86% 29.66 in 10.0 mi WSW 18.4 mph - N/A   Clear
7:15 PM 28.4 °F 15.8 °F 26.6 °F 93% 29.63 in 10.0 mi WSW 18.4 mph 23.0 mph N/A   Clear
7:35 PM 30.2 °F 17.1 °F 26.6 °F 86% 29.62 in 10.0 mi West 21.9 mph - N/A   Clear
7:55 PM 30.2 °F 15.7 °F 26.6 °F 86% 29.60 in 6.0 mi West 27.6 mph - N/A   Clear
8:15 PM 32.0 °F 19.2 °F 26.6 °F 80% 29.58 in 9.0 mi West 23.0 mph 29.9 mph N/A   Clear
8:35 PM 32.0 °F 18.1 °F 28.4 °F 87% 29.55 in 6.0 mi West 27.6 mph 33.4 mph N/A   Clear
8:55 PM 32.0 °F 18.4 °F 28.4 °F 87% 29.54 in 8.0 mi WSW 26.5 mph 29.9 mph N/A   Clear
9:15 PM 32.0 °F 18.1 °F 28.4 °F 87% 29.51 in 5.0 mi WSW 27.6 mph 32.2 mph N/A   Clear
9:35 PM 32.0 °F 18.6 °F 28.4 °F 87% 29.51 in 7.0 mi WSW 25.3 mph - N/A   Clear
9:55 PM 32.0 °F 19.2 °F 26.6 °F 80% 29.50 in 10.0 mi WSW 23.0 mph - N/A   Clear
10:15 PM 32.0 °F 19.2 °F 26.6 °F 80% 29.49 in 8.0 mi West 23.0 mph 33.4 mph N/A   Scattered Clouds
10:35 PM 32.0 °F 20.5 °F 26.6 °F 80% 29.49 in 10.0 mi West 18.4 mph - N/A   Partly Cloudy
10:55 PM 32.0 °F 18.6 °F 28.4 °F 87% 29.47 in 9.0 mi West 25.3 mph 31.1 mph N/A   Clear
11:15 PM 33.8 °F 21.9 °F 28.4 °F 81% 29.47 in 10.0 mi West 21.9 mph 28.8 mph N/A   Clear
11:35 PM 32.0 °F 19.5 °F 28.4 °F 87% 29.47 in 10.0 mi WNW 21.9 mph 26.5 mph N/A   Clear
11:55 PM 32.0 °F 20.1 °F 26.6 °F 80% 29.46 in 10.0 mi WNW 19.6 mph 26.5 mph N/A   Clear